Location: Falconara Alta
(43.6167°N, 13.4000°E)
Time: 16:04:30
(UTC+00:00)

Cosmos 1140 Rocket - Pass Details

Date: 09 April 2020
Orbit: 745 x 767 km, 74.1° (Epoch: 04 June)

Event Time Altitude Azimuth Distance (km) Brightness Sun altitude
Rises 18:22:46 0° 181° (S) 3,202 6.5 -7.8°
Reaches altitude 10° 18:25:12 10° 175° (S) 2,277 5.7 -8.2°
Maximum altitude 18:30:06 45° 104° (ESE) 1,017 3.7 -9.0°
Drops below altitude 10° 18:35:00 10° 32° (NNE) 2,279 5.8 -9.8°
Sets 18:37:27 0° 27° (NNE) 3,205 6.7 -10.2°
